Location: Bavegemberg
(50.9500°N, 3.8833°E)
Time: 12:07:27
(UTC+00:00)

Meteor 1-4 Rocket - Pass Details

Date: 23 May 2024
Orbit: 359 x 380 km, 81.2° (Epoch: 14 June)

Event Time Altitude Azimuth Distance (km) Brightness Sun altitude
Exits shadow 02:27:42 10° 258° (WSW) 1,369 4.4 -9.6°
Reaches altitude 10° 02:27:47 10° 259° (W) 1,348 4.4 -9.6°
Maximum altitude 02:29:29 14° 295° (WNW) 1,129 4.3 -9.4°
Drops below altitude 10° 02:31:12 10° 330° (NNW) 1,358 5.1 -9.3°
Sets 02:33:50 0° 357° (N) 2,216 6.7 -9.0°
